{"data":{"norad_id":59679,"intl_designator":"2024-085C","name":"2024-085C","alt_names":[],"object_type":"PAYLOAD","status":"ACTIVE","operator":null,"country":"PRC","launch_date":"2024-05-07","launch_site_code":"TAISC","launch_vehicle":null,"mission":null,"orbit_class":"UNKNOWN","rcs_meters":null,"size_class":null,"mass_kg":null,"dimensions":null,"purposes":[],"wikipedia_slug":null,"has_3d_model":false,"image_url":null,"decayed_at":null,"tle_current":{"epoch":"2026-05-25T04:59:00.310272Z","epoch_age_seconds":53150,"freshness":"FRESH","line1":"1 59679U 24085C   26145.20764248  .00010373  00000+0  32016-3 0  9994","line2":"2 59679  97.3292 221.2671 0028665 120.8978 239.5089 15.33336630114121","mean_motion":15.3333663,"eccentricity":0.0028665,"inclination_deg":97.3292,"raan_deg":221.2671,"arg_perigee_deg":120.8978,"mean_anomaly_deg":239.5089,"bstar":0.00032016,"rev_number":11412,"period_min":93.912841565652,"perigee_km":446.24729281499,"apogee_km":485.48395987182,"semimajor_km":6844.0026263434,"source":"CELESTRAK","updated_at":"2026-05-25T13:38:01.559933Z"}}}